Date,TemperatureHighF,TemperatureAvgF,TemperatureLowF,DewpointHighF,DewpointAvgF,DewpointLowF,HumidityHigh,HumidityAvg,HumidityLow,PressureMaxIn,PressureMinIn,WindSpeedMaxMPH,WindSpeedAvgMPH,GustSpeedMaxMPH,PrecipitationSumIn
2012-12-1,59.0,43.5,32.0,46.5,38.5,30.4,95,84,62,30.48,30.39,7,1,13,0.01
2012-12-2,62.3,50.4,40.4,49.1,44.1,38.7,96,81,55,30.44,30.31,10,1,20,0.00
2012-12-3,65.8,50.4,39.3,50.0,43.7,38.0,96,80,53,30.38,30.29,8,1,13,0.00
2012-12-4,65.1,52.6,39.9,48.8,45.3,38.3,95,78,53,30.37,30.24,10,1,17,0.00
2012-12-5,59.7,53.9,49.1,54.3,48.8,38.4,91,83,66,30.24,30.14,7,1,12,0.00
2012-12-6,50.5,47.4,42.4,42.9,36.1,28.9,82,65,50,30.28,30.19,2,0,6,0.00
2012-12-7,58.7,47.4,40.7,51.8,44.0,37.5,96,89,70,30.21,30.03,8,0,12,0.05
2012-12-8,61.5,49.9,39.8,52.9,46.8,39.0,98,90,65,30.12,30.04,9,1,17,0.05
2012-12-9,61.1,54.9,47.7,55.5,52.4,46.6,98,91,80,30.13,30.00,6,1,16,0.04
2012-12-10,55.3,54.0,51.3,53.7,52.5,49.7,97,95,91,30.00,29.70,9,1,17,0.61
2012-12-11,52.3,41.0,34.4,49.4,37.3,31.5,96,87,73,30.18,29.76,6,1,12,0.00
2012-12-12,40.7,36.7,31.3,35.5,32.7,30.0,96,86,77,30.36,30.19,5,0,12,0.00
2012-12-13,51.3,38.8,27.2,34.7,30.8,24.8,93,75,47,30.43,30.32,6,0,10,0.00
2012-12-14,56.7,36.0,23.6,34.1,27.7,21.6,93,75,36,30.46,30.33,3,0,7,0.00
2012-12-15,55.1,41.1,31.2,38.3,33.1,28.1,88,75,42,30.35,30.15,5,0,12,0.00
2012-12-16,52.6,47.2,40.1,51.5,45.4,36.1,97,94,83,30.15,29.96,3,0,7,0.66
2012-12-17,48.8,46.8,44.8,48.0,46.1,44.0,98,97,96,29.96,29.71,3,0,7,0.18
2012-12-18,49.8,42.6,34.4,45.5,31.2,23.0,97,66,38,30.03,29.73,14,3,23,0.02
2012-12-19,60.0,44.9,35.7,40.4,33.6,23.1,91,66,44,30.18,30.02,14,2,20,0.00
2012-12-20,45.5,39.6,32.3,44.7,36.8,24.9,97,90,71,30.18,29.68,15,2,28,1.35
2012-12-21,32.9,29.6,25.5,25.0,20.4,14.4,86,69,55,30.01,28.27,21,11,40,0.00
2012-12-22,51.7,37.5,26.6,15.3,10.3,2.0,58,34,19,30.24,30.01,21,6,33,0.00
2012-12-23,51.4,42.8,31.4,35.7,21.3,8.0,68,43,32,30.23,30.09,13,3,21,0.00
2012-12-24,46.4,41.9,36.3,44.5,39.1,27.3,97,91,48,30.09,29.88,10,0,17,0.36
2012-12-25,47.3,39.8,32.7,44.0,38.0,31.5,98,93,82,30.14,29.98,2,0,8,0.28
2012-12-26,45.1,39.7,30.8,44.3,37.1,25.4,97,91,77,29.98,29.50,16,3,26,3.03
2012-12-27,46.0,33.7,27.3,31.5,27.0,24.5,93,77,52,30.15,29.77,9,2,17,0.00
2012-12-28,46.6,33.5,25.5,34.0,28.9,23.8,94,84,59,30.23,30.03,3,0,7,0.13
2012-12-29,41.7,34.5,27.8,35.2,29.2,17.8,96,81,65,30.11,29.83,13,3,25,0.26
2012-12-30,44.2,31.1,23.8,24.2,19.3,11.7,88,63,37,30.50,30.11,13,2,27,0.00
2012-12-31,52.4,36.9,23.1,27.0,21.1,10.2,89,58,21,30.47,30.20,13,2,18,0.00